Regional Weather Roundup
Issued by NWS Little Rock, AR

Home | Current Version | Previous Version | Text Only | Print | Product List | Glossary Off
Versions: 1 2 3 4 5 6 7 8 9 10 11 12 13 14 15 16 17 18 19 20 21 22 23 24 25 26 27 28 29 30 31 32 33 34 35 36 37 38 39 40 41 42 43 44 45 46 47 48 49 50

000
ASUS44 KLZK 261505
RWRLZK

WEATHER ROUNDUP FOR ARKANSAS
NATIONAL WEATHER SERVICE LITTLE ROCK AR
1000 AM CDT TUE AUG 26 2014

NOTE: "FAIR" INDICATES FEW OR NO CLOUDS BELOW 12,000 FEET WITH NO
SIGNIFICANT WEATHER AND/OR OBSTRUCTIONS TO VISIBILITY.

ARZ001-003-010-029-261600-
NORTHWEST ARKANSAS

CITY           SKY/WX    TMP DP  RH WIND       PRES   REMARKS
FAYETTEVILLE   MOSUNNY   83  73  72 VRB3      30.14S HX  89
FORT SMITH     PTSUNNY   84  73  69 E5        30.08F HX  90
HARRISON       MOSUNNY   81  73  76 CALM      30.15S HX  86
BENTONVILLE    SUNNY     84  72  65 CALM      30.16R HX  89
ROGERS         SUNNY     84  72  67 SE5       30.16R HX  89
SILOAM SPGS    SUNNY     84  70  61 SW3       30.15R HX  88
HIGHFILL       SUNNY     84  72  67 CALM      30.14S HX  89
SPRINGDALE     SUNNY     82  73  74 E5        30.16R HX  88
$$

ARZ004-005-016-261600-
NORTH CENTRAL ARKANSAS

CITY           SKY/WX    TMP DP  RH WIND       PRES   REMARKS
BATESVILLE     SUNNY     88  75  66 CALM      30.10S HX  97
FLIPPIN        MOSUNNY   81  72  74 CALM      30.13R
MTN HOME       PTSUNNY   82  73  74 CALM      30.13R HX  87
$$

ARZ040-041-261600-
WEST CENTRAL ARKANSAS

CITY           SKY/WX    TMP DP  RH WIND       PRES   REMARKS
MENA           MOSUNNY   81  73  78 CALM      30.13S HX  85
MOUNT IDA      MOSUNNY   84  74  71 CALM      30.09R HX  91
$$

ARZ009-017-025-026-028-261600-
NORTHEAST ARKANSAS

CITY           SKY/WX    TMP DP  RH WIND       PRES   REMARKS
CORNING        LGT RAIN  86  75  70 S6        30.12S HX  95
JONESBORO      SUNNY     86  71  60 SW5       30.11R HX  91
NEWPORT        SUNNY     87  74  65 SE10      30.11S HX  95
WALNUT RIDGE   SUNNY     75  75 100 CALM      30.10S
BLYTHEVILLE    SUNNY     85  75  72 SW5       30.12R HX  93
$$

ARZ022-023-033-042-044-261600-
CENTRAL ARKANSAS

CITY           SKY/WX    TMP DP  RH WIND       PRES   REMARKS
LITTLE ROCK    MOSUNNY   85  74  69 CALM      30.09S HX  92
N LITTLE ROCK  MOSUNNY   85  77  75 SE5       30.09S HX  96
JACKSONVILLE   SUNNY     87  75  68 VRB5      30.09S HX  96
SEARCY           N/A     89  77  67 CALM      30.11  HX 101
HOT SPRINGS    SUNNY     84  74  71 CALM      30.10R HX  91
RUSSELLVILLE   SUNNY     87  76  69 VRB3      30.09F HX  97
CLINTON        FAIR      84  77  79 CALM      30.11S HAZE    HX  94
$$

ARZ036-261600-
EAST ARKANSAS

CITY           SKY/WX    TMP DP  RH WIND       PRES   REMARKS
WEST MEMPHIS     N/A    N/A N/A N/A MISG      30.10S
$$

ARZ050-053-066-070-073-261600-
SOUTHWEST ARKANSAS

CITY           SKY/WX    TMP DP  RH WIND       PRES   REMARKS
ARKADELPHIA    FAIR      85  75  71 CALM      30.08S HX  93
CAMDEN         SUNNY     84  72  65 E3        30.07S HAZE    HX  89
TEXARKANA      SUNNY     82  73  74 SE5       30.08R HX  87
EL DORADO        N/A    N/A N/A N/A MISG      30.08S
DE QUEEN       SUNNY     84  72  67 CALM      30.06S HX  89
$$

ARZ056-057-069-261600-
SOUTHEAST ARKANSAS

CITY           SKY/WX    TMP DP  RH WIND       PRES   REMARKS
PINE BLUFF     MOSUNNY   83  75  77 NE5       30.10R HX  90
STUTTGART      SUNNY     84  73  70 E7        30.11R HX  91
MONTICELLO     PTSUNNY   81  73  76 CALM      30.09R HX  86

$$





USA.gov is the U.S. government's official web portal to all federal, state and local government web resources and services.